Station THLO1 - Toledo Light No. 2 OH Image indicating link to RSS feed of recent meteorological observations for station THLO1


Conditions at THLO1 as of
(10:00 am EDT)
1400 GMT on 05/29/2024:
     

Click on the graph icon in the table below to see a time series plot of the last five days of that observation.

5-day plot - Wind Direction Wind Direction (WDIR):NNW ( 330 deg true )
5-day plot - Wind Speed Wind Speed (WSPD):6.2 m/s
5-day plot - Wind Gust Wind Gust (GST):7.2 m/s
5-day plot - Atmospheric Pressure Atmospheric Pressure (PRES):1016.2 mb
5-day plot - Pressure Tendency Pressure Tendency (PTDY): +1.8 mb ( Rising )
5-day plot - Air Temperature Air Temperature (ATMP): 15.3 °C
5-day plot - Dew Point Dew Point (DEWP): 12.5 °C
5-day plot - Wind Speed at 10 Meters Wind Speed at 10 meters (WSPD10M): 6 m/s
5-day plot - Wind Speed at 20 Meters Wind Speed at 20 meters (WSPD20M): 6 m/s
5-day plot -  Wind Speed, Wind Gust and Atmospheric Pressure Combined plot of Wind Speed, Gust, and Air Pressure
Previous observations
TIME
(EDT)
5-day plot - Wind Direction
WDIR
 
5-day plot - Wind Speed
WSPD
m/s
5-day plot - Wind Gust
GST
m/s
5-day plot - Wave Height
WVHT
m
5-day plot - Dominant Wave Period
DPD
sec
5-day plot - Average Wave Period
APD
sec
5-day plot - Mean Wave Direction
MWD
 
5-day plot - Atmospheric Pressure
PRES
mb
5-day plot - Pressure Tendency
PTDY
mb
5-day plot - Air Temperature
ATMP
°C
5-day plot - Water Temperature
WTMP
°C
5-day plot - Dew Point
DEWP
°C
5-day plot - Salinity
SAL
psu
5-day plot - Visibility
VIS
km
5-day plot - Tide (above MLLW)
TIDE
m
2024-05-29 09:00 amNNW 8 9----1015.6 +1.4 15.1- 12.7---
2024-05-29 08:00 amNNW 8 9----1015.0 +1.2 15.1- 12.3---
2024-05-29 07:00 am N 6 7----1014.4 +0.8 15.1- 12.2---
2024-05-29 06:00 am N 6 7----1014.2 +0.6 15.4- 12.4---
2024-05-29 05:00 amNNE 3 4----1013.8 +0.0 16.0- 11.7---
2024-05-29 04:00 am NE 2 3----1013.6 -0.3 15.9- 11.3---
2024-05-29 03:00 amNNE 4 5----1013.6 +0.0 15.7- 11.8---
2024-05-29 02:00 amNNE 5 6----1013.7 +0.0 15.9- 11.9---
2024-05-29 01:00 am N 5 6----1013.9 +0.0 16.4- 12.3---
2024-05-29 12:00 amENE 5 6----1013.6 +0.0 16.6- 11.8---
2024-05-28 11:00 pmNNE 8 9----1013.6 +0.3 16.6- 11.4---
2024-05-28 10:00 pm N 5 7----1014.0 +1.5 16.7- 12.4---
2024-05-28 09:00 pmNNE 8 9----1013.7 +0.9 16.9- 12.8---
2024-05-28 08:00 pmNNW 7 8----1013.3 +0.8 16.9- 12.9---
2024-05-28 07:00 pm W 8 9----1012.5 +0.0 17.4- 12.8---
2024-05-28 06:00 pm SW 10 12----1012.8 +0.5 17.8- 13.0---
2024-05-28 05:00 pm SW 8 9----1012.5 +0.2 17.9- 13.5---
2024-05-28 04:00 pm SW 7 8----1012.4 +0.2 18.7- 12.6---
2024-05-28 03:00 pmWSW 6 7----1012.3 +0.0 18.0- 12.8---
2024-05-28 02:00 pm W 3 4----1012.3 +0.0 18.4- 12.5---
2024-05-28 01:00 pm W 4 5----1012.1 +0.3 17.4- 11.6---
2024-05-28 12:00 pm W 5 5----1012.3 +1.1 16.5- 11.8---
2024-05-28 11:00 am W 7 8----1012.1 +1.3 16.2- 11.8---
2024-05-28 10:00 am W 8 9----1011.9 +1.4 15.5- 12.1---